This is the latest recevied weather packets stored in our database for station/object W6TKD-13. If no packets are shown the sender has not sent any weather packets the latest 10 day(s).
| Time | Temp. | Humidity | Pressure | Rain* | Wind** | Luminosity | Snow |
|---|---|---|---|---|---|---|---|
| 1777142232 | 18.89° C | 51% | 1010.9 hPa | 0 mm | - | - | - |
| 1777141565 | 19.44° C | 51% | 1011.1 hPa | 0 mm | - | - | - |
| 1777140897 | 19.44° C | 51% | 1011 hPa | 0 mm | - | - | - |
| 1777140231 | 20° C | 51% | 1010.9 hPa | 0 mm | - | - | - |
| 1777139563 | 20.56° C | 52% | 1010.9 hPa | 0 mm | - | - | - |
| 1777138230 | 17.78° C | 53% | 1010.8 hPa | 0 mm | - | - | - |
| 1777137563 | 17.78° C | 54% | 1010.8 hPa | 0 mm | - | - | - |
| 1777136897 | 17.22° C | 55% | 1010.8 hPa | 0 mm | - | - | - |
| 1777136230 | 16.11° C | 56% | 1010.9 hPa | 0 mm | - | - | - |
| 1777135562 | 15° C | 56% | 1010.8 hPa | 0 mm | - | - | - |
| 1777134895 | 14.44° C | 56% | 1010.7 hPa | 0 mm | - | - | - |
| 1777134228 | 13.89° C | 57% | 1010.7 hPa | 0 mm | - | - | - |
| 1777133561 | 12.78° C | 58% | 1010.6 hPa | 0 mm | - | - | - |
| 1777132894 | 12.22° C | 58% | 1010.7 hPa | 0 mm | - | - | - |
| 1777132227 | 11.67° C | 58% | 1010.6 hPa | 0 mm | - | - | - |
| 1777131560 | 10.56° C | 59% | 1010.7 hPa | 0 mm | - | - | - |
| 1777130894 | 10° C | 59% | 1010.8 hPa | 0 mm | - | - | - |
| 1777130226 | 9.44° C | 59% | 1010.8 hPa | 0 mm | - | - | - |
| 1777129559 | 8.89° C | 58% | 1010.9 hPa | 0 mm | - | - | - |
| 1777128891 | 8.89° C | 58% | 1010.8 hPa | 0 mm | - | - | - |
| 1777128225 | 8.33° C | 58% | 1010.8 hPa | 0 mm | - | - | - |
| 1777127558 | 7.78° C | 58% | 1010.7 hPa | 0 mm | - | - | - |
| 1777126891 | 7.22° C | 58% | 1010.9 hPa | 0 mm | - | - | - |
| 1777126225 | 7.22° C | 58% | 1011 hPa | 0 mm | - | - | - |
| 1777125557 | 6.67° C | 58% | 1010.9 hPa | 0 mm | - | - | - |
* Rain since midnight (hover to see other rain measurements)
** Current wind speed in m/s (hover to see current wind gust speed)